Weather History for Livingston, MT

Change the Weather History Date:

Tuesday, May 8, 2012

  Actual Average Record
Temperature  
Mean Temperature 52 °F 48 °F  
Max Temperature 75 °F 63 °F 85 °F (1987)
Min Temperature 30 °F 34 °F 14 °F (2002)
Degree Days  
Heating Degree Days 12    
Cooling Degree Days 0 0  
Month to date cooling degree days 0  
Year to date cooling degree days 0  
Growing Degree Days 2 (Base 50)    
Moisture  
Dew Point 27 °F    
Average Humidity 43    
Maximum Humidity 79    
Minimum Humidity 16    
Precipitation  
Precipitation 0.00 in 0.08 in 0.82 in (1952)
Month to date precipitation 0.59  
Year to date precipitation 4.19  
Sea Level Pressure  
Sea Level Pressure 30.07 in    
Wind  
Wind Speed 6 mph (WSW)    
Max Wind Speed 15 mph    
Max Gust Speed 22 mph    
Visibility 10 miles    
Events      
T = Trace of Precipitation, MM = Missing Value Source: NWS Daily Summary

Daily Weather History Graph

Daily Weather History Graph

Search for Another Location

Airport:

Trip Planner

Search our weather history database for the weather conditions in past years. The results will help you decide how hot, cold, wet, or windy it might be!

Date:

Astronomy

May. 08, 2012 Rise Set
Actual Time 5:58 AM MDT 8:38 PM MDT
Civil Twilight 5:24 AM MDT 9:12 PM MDT
Nautical Twilight 4:42 AM MDT 9:55 PM MDT
Astronomical Twilight 3:52 AM MDT 10:45 PM MDT
Moon 11:55 PM MDT (5/8) 8:05 AM MDT (5/8)
Length of Visible Light 15h 47m
Length of Day
14h 40m
Waning Gibbous, 90% of the Moon is Illuminated
May 8
Waning Gibbous
May 12
Last Quarter
May 20
New
May 28
First Quarter
Jun 4
Full

Hourly Weather History & Observations

Time (MDT) Temp. Windchill Dew Point Humidity Pressure Visibility Wind Dir Wind Speed Gust Speed Precip Events Conditions
12:53 AM 39.0 °F 36.8 °F 25.0 °F 57% 30.22 in 10.0 mi WSW 3.5 mph - N/A   Clear
1:53 AM 36.0 °F 30.3 °F 26.1 °F 67% 30.22 in 10.0 mi South 6.9 mph - N/A   Clear
2:53 AM 32.0 °F 28.7 °F 25.0 °F 75% 30.23 in 10.0 mi SW 3.5 mph - N/A   Clear
3:53 AM 30.9 °F - 24.1 °F 76% 30.22 in 10.0 mi Calm Calm - N/A   Clear
4:53 AM 30.0 °F 22.4 °F 24.1 °F 79% 30.22 in 10.0 mi NW 8.1 mph - N/A   Clear
5:53 AM 30.0 °F - 24.1 °F 79% 30.22 in 10.0 mi Calm Calm - N/A   Clear
6:53 AM 30.9 °F - 25.0 °F 79% 30.21 in 10.0 mi Calm Calm - N/A   Clear
7:53 AM 39.9 °F 35.8 °F 28.0 °F 63% 30.19 in 10.0 mi NW 5.8 mph - N/A   Clear
8:53 AM 48.9 °F - 30.0 °F 48% 30.18 in 10.0 mi Calm Calm - N/A   Clear
9:53 AM 60.1 °F - 24.1 °F 25% 30.12 in 10.0 mi West 13.8 mph - N/A   Clear
10:53 AM 61.0 °F - 24.1 °F 24% 30.10 in 10.0 mi West 10.4 mph - N/A   Clear
11:53 AM 66.9 °F - 25.0 °F 21% 30.06 in 10.0 mi WSW 11.5 mph - N/A   Clear
12:53 PM 70.0 °F - 26.1 °F 19% 30.04 in 10.0 mi SW 11.5 mph 21.9 mph N/A   Clear
1:53 PM 70.0 °F - 26.1 °F 19% 30.02 in 10.0 mi SSW 8.1 mph 17.3 mph N/A   Clear
2:53 PM 73.9 °F - 28.0 °F 18% 30.00 in 10.0 mi SSW 11.5 mph 16.1 mph N/A   Clear
3:53 PM 73.9 °F - 24.1 °F 16% 29.97 in 10.0 mi SW 11.5 mph - N/A   Clear
4:53 PM 75.0 °F - 28.0 °F 18% 29.95 in 10.0 mi Variable 5.8 mph - N/A   Clear
5:53 PM 75.0 °F - 27.0 °F 17% 29.94 in 10.0 mi SW 8.1 mph - N/A   Clear
6:53 PM 73.9 °F - 27.0 °F 18% 29.93 in 10.0 mi SW 4.6 mph - N/A   Clear
7:53 PM 69.1 °F - 28.0 °F 22% 29.91 in 10.0 mi West 5.8 mph - N/A   Clear
8:53 PM 55.9 °F - 34.0 °F 44% 29.93 in 10.0 mi South 8.1 mph - N/A   Clear
9:53 PM 50.0 °F - 33.1 °F 52% 29.92 in 10.0 mi SW 5.8 mph - N/A   Clear
10:53 PM 50.0 °F - 32.0 °F 50% 29.92 in 10.0 mi WNW 4.6 mph - N/A   Clear
11:53 PM 48.9 °F - 30.9 °F 50% 29.91 in 10.0 mi NW 15.0 mph - N/A   Clear